Location: Franzen
(48.6167°N, 15.3833°E)
Time: 02:37:46
(UTC+00:00)

Transit 2A - Pass Details

Date: 11 August 2021
Orbit: 594 x 964 km, 66.7° (Epoch: 21 September)

Event Time Altitude Azimuth Distance (km) Brightness Sun altitude
Rises 13:23:39 0° 305° (NW) 3,366 9.5 45.9°
Reaches altitude 10° 13:28:38 10° 267° (W) 2,530 9.5 45.2°
Maximum altitude 13:29:33 10° 258° (WSW) 2,520 9.6 45.1°
Drops below altitude 10° 13:30:28 10° 249° (WSW) 2,562 9.7 45.0°
Sets 13:35:46 0° 211° (SSW) 3,576 10.1 44.3°
